Regional Weather Roundup
Issued by NWS New Orleans/Baton Rouge, LA

Home | Current Version | Previous Version | Text Only | Print | Product List | Glossary On
Versions: 1 2 3 4 5 6 7 8 9 10 11 12 13 14 15 16 17 18 19 20 21 22 23 24 25 26 27
000
ASUS44 KLIX 242214
RWRLIX
NEW ORLEANS REGIONAL WEATHER ROUNDUP
NATIONAL WEATHER SERVICE NEW ORLEANS LA
500 PM CDT SUN SEP 24 2017

NOTE: "FAIR" INDICATES FEW OR NO CLOUDS BELOW 12,000 FEET WITH NO
      SIGNIFICANT WEATHER AND/OR OBSTRUCTIONS TO VISIBILITY.
      SKY/WX - SKY CONDITION AND SIGNIFICANT WEATHER.
      TMP - AIR TEMPERATURE.     DP    - DEWPOINT TEMPERATURE.
      RH  - RELATIVE HUMIDITY.   PRES  - PRESSURE.
      HI  - HEAT INDEX.          WCI   - WIND CHILL INDEX.

*  THESE STATIONS ARE NOT NWS OR FAA STATIONS AND ARE NOT UNDER
   NWS QUALITY CONTROL.

LAZ038-040-048-061>063-065>067-069-242300-
SOUTHEAST LOUISIANA

CITY           SKY/WX    TMP DP  RH WIND       PRES   REMARKS
N.O. INTL ARPT MOSUNNY   87  67  51 E10       29.88S
N.O. LAKEFRONT MOSUNNY   86  71  60 E13       29.89S
N.O. DOWNTOWN* MOCLDY    86  70  58 E6        29.89S
RESERVE*         N/A     88  68  51 E12       29.88S
SLIDELL        SUNNY     86  67  52 E7        29.89S
BATON ROUGE    SUNNY     86  68  54 E10       29.88S
BOOTHVILLE     SUNNY     82  71  69 E16       29.89S
BELLE CHASSE   NOT AVBL
BOGALUSA*        N/A     81  68  65 NE3       29.92S
GALLIANO*      PTCLDY    84  68  58 E9G17     29.88R
NEW ROADS*       N/A     89  66  45 E7        29.87S
GONZALES*        N/A     88  67  50 E8        29.87S
HAMMOND*       TSTM      70  63  78 W5G63     29.93R VSB 3/4
HOUMA*         MOSUNNY   88  72  58 E12G17    29.87S
PORT FOURCHON* PTCLDY    82  70  65 E13G22    29.88R

$$

MSZ070-080>082-242300-
SOUTHERN MISSISSIPPI

CITY           SKY/WX    TMP DP  RH WIND       PRES   REMARKS
MCCOMB         SUNNY     86  68  54 NE5       29.89F
GULFPORT       MOSUNNY   84  71  65 SE16      29.89S
BILOXI         MOSUNNY   84  70  63 SE9       29.89S
PASCAGOULA     MOSUNNY   83  69  62 E7        29.90S

$$

COASTAL OBSERVATIONS
LAKE AND NEARSHORE STATIONS

STATION/POSITION TIME  TEMP    WIND        PRES    WAVE
                       AIR SEA DIR/SP/G            HT/PER
                 (UTC) (F)     (DEG/KT/KT) (MB)    (FT/S)
PASCAGOULA       2136   82     120/ 11/ 16 1012.0
WAVELAND YACHT   2136   81 85  130/ 10/ 14 1012.5
GRAND ISLE       2136   83 86  100/  9/ 16 1011.8
SOUTHWEST PASS   2136           70/ 20/ 22   N/A
NEW CANAL        2148   86 83   90/  7/ 16 1011.8
SHELL BEACH      2136   82 87   80/ 16/ 19 1011.9

OFFSHORE STATIONS

STATION/POSITION TIME  TEMP    WIND        PRES    WAVE
                       AIR SEA DIR/SP/G            HT/PER
                 (UTC) (F)     (DEG/KT/KT) (MB)    (FT/S)
64 S DAUPHIN ISL 2150   79 82   70/ 16/ 19 1011.8    5/ 6

$$





USA.gov is the U.S. government's official web portal to all federal, state and local government web resources and services.